Flag for Italy Weather past 2 weeks in Venice, Italy

Now
61 °F

Clear.


Feels Like: 61 °F
Forecast: 64 / 74 °F
Wind: 6 mph from Northwest

Location: Venice / Tessera

Current Time: Sep 2, 2014 at 3:03:31 AM

Latest Report: Sep 2, 2014 at 2:20 AM


Visibility: 10 mi

Pressure: 29.80 "Hg

Humidity: 94%

Dew point: 59 °F

Location of VeniceLocation

Historic Weather in Venice — Graph

°F

Venice temperature yesterday

Maximum temperature yesterday: 68 °F (at 4:20 PM)
Minimum temperature yesterday: 59 °F (at 3:20 AM)
Average temperature yesterday: 63 °F

Past Weeks' High & Low Weather Summary

 TemperatureHumidityPressure
High82 °F (Aug 29, 2:50 PM)100% (Aug 19, 10:20 AM)30.07 "Hg (Aug 19, 10:20 AM)
Low59 °F (Aug 24, 5:50 AM)44% (Aug 28, 12:20 PM)29.65 "Hg (Aug 31, 10:50 PM)
Average69 °F75%29.91 "Hg
* Reported Aug 18 1:20 AM — Sep 2 1:50 AM, Venice, Weather by CustomWeather, © 2014

Note: Actual official high and low records may vary slightly from our data, if they occured in-between our weather recording intervals... More about our weather records

Advertising

Venice weather history for previous 24 hours

 ConditionsComfort  
Time TempWeatherWind HumidityBarometerVisibility
1:50 AM
Sep 2
61 °FClear.5 mph94%29.80 "Hg10 mi
1:20 AM61 °FClear.2 mph94%29.80 "Hg10 mi
12:50 AM63 °FClear.6 mph88%29.80 "Hg10 mi
12:20 AM63 °FClear.No wind88%29.80 "Hg10 mi
11:50 PM
Sep 1
63 °FClear.3 mph88%29.80 "Hg10 mi
11:20 PM63 °FClear.5 mph88%29.80 "Hg10 mi
10:50 PM63 °FClear.6 mph88%29.80 "Hg10 mi
10:20 PM64 °FClear.5 mph83%29.80 "Hg10 mi
9:50 PM64 °FClear.6 mph83%29.80 "Hg10 mi
9:20 PM66 °FClear.6 mph78%29.80 "Hg10 mi
8:50 PM66 °FClear.6 mph78%29.77 "Hg10 mi
8:20 PM66 °FSunny.5 mph78%29.77 "Hg10 mi
7:50 PM66 °FSunny.5 mph78%29.77 "Hg10 mi
7:20 PM68 °FSunny.6 mph73%29.77 "Hg10 mi
6:50 PM68 °FSunny.3 mph73%29.77 "Hg10 mi
6:20 PM68 °FSunny.3 mph78%29.77 "Hg10 mi
5:50 PM68 °FSunny.3 mph78%29.77 "Hg10 mi
5:20 PM68 °FSunny.1 mph78%29.77 "Hg10 mi
4:50 PM68 °FSunny.7 mph78%29.77 "Hg10 mi
4:20 PM68 °FScattered clouds.8 mph73%29.74 "HgN/A
3:50 PM66 °FScattered clouds.8 mph73%29.74 "HgN/A
3:20 PM66 °FScattered clouds.5 mph68%29.74 "HgN/A
2:50 PM66 °FPartly sunny.8 mph64%29.74 "HgN/A
2:20 PM66 °FPartly sunny.9 mph73%29.74 "HgN/A
1:50 PM64 °FPartly sunny.9 mph73%29.77 "HgN/A
1:20 PM63 °FPartly sunny.6 mph73%29.77 "HgN/A
12:50 PM63 °FPartly sunny.8 mph73%29.77 "HgN/A
12:20 PM63 °FPartly sunny.5 mph73%29.77 "HgN/A
11:50 AM63 °FPartly sunny.1 mph83%29.77 "HgN/A
11:20 AM61 °FLight rain. Broken clouds.1 mph77%29.77 "HgN/A
10:50 AM59 °FRain. Broken clouds.2 mph82%29.74 "HgN/A
10:20 AM59 °FRain. Broken clouds.3 mph77%29.74 "HgN/A
9:50 AM59 °FLight rain. Broken clouds.5 mph77%29.74 "HgN/A
9:20 AM59 °FLight rain. Broken clouds.6 mph82%29.74 "HgN/A
8:50 AM59 °FLight rain. Broken clouds.7 mph82%29.74 "HgN/A
8:20 AM59 °FLight rain. Broken clouds.9 mph82%29.74 "HgN/A
7:50 AM59 °FPartly sunny.10 mph77%29.74 "HgN/A
7:20 AM59 °FPassing clouds.13 mph77%29.74 "HgN/A
6:50 AM59 °FPassing clouds.10 mph77%29.74 "HgN/A
6:20 AM61 °FLight rain. Partly cloudy.15 mph68%29.71 "HgN/A
5:50 AM61 °FPassing clouds.23 mph68%29.71 "HgN/A
5:20 AM59 °FPassing clouds.25 mph72%29.71 "HgN/A
4:50 AM61 °FPassing clouds.21 mph72%29.71 "HgN/A
4:20 AM59 °FPassing clouds.13 mph77%29.74 "HgN/A
3:50 AM59 °FPassing clouds.13 mph82%29.74 "HgN/A
3:20 AM59 °FPartly cloudy.18 mph88%29.68 "HgN/A
Weather by CustomWeather, © 2014

See weather overviewHow to use our weather pages